Regional Weather Roundup
Issued by NWS

Home | Current Version | Previous Version | Graphics & Text | Print | Product List | Glossary Off
Versions: 1 2 3 4 5 6 7 8 9 10 11 12 13 14 15 16 17 18 19 20 21 22 23 24 25 26 27 28 29 30 31 32 33 34 35 36 37 38 39 40 41 42 43 44 45 46 47 48 49 50

000
ASUS43 KTOP 100059
RWRKS

WEATHER ROUNDUP FOR KANSAS
NATIONAL WEATHER SERVICE GOODLAND KS
800 PM CDT WED JUL 09 2014

NOTE:  "FAIR" INDICATES FEW OR NO CLOUDS BELOW 12,000 FEET WITH NO
SIGNIFICANT WEATHER AND/OR OBSTRUCTIONS TO VISIBILITY.

KSZ001>006-013>018-027>032-041>047-100200-
NORTHWEST KANSAS

CITY           SKY/WX    TMP DP  RH WIND       PRES   REMARKS
GOODLAND       MOSUNNY   83  62  49 S18       29.94F
HAYS           SUNNY     84  55  37 S17       29.94F
HILL CITY      SUNNY     86  56  35 S15G23    29.94R
RUSSELL        SUNNY     85  58  39 S15       29.93S
$$

KSZ061>065-074>080-084>089-100200-
SOUTHWEST KANSAS

CITY           SKY/WX    TMP DP  RH WIND       PRES   REMARKS
DODGE CITY     SUNNY     82  63  52 SE20      29.97F
ELKHART          N/A     84  58  41 S16         N/A
GARDEN CITY    SUNNY     83  64  52 S20G33    29.95F
GREAT BEND     SUNNY     84  57  39 S10       29.94R
LIBERAL        MOSUNNY   90  63  40 S16G26    29.96F
$$

KSZ066>073-081>083-090>101-100200-
SOUTHEAST KANSAS

CITY           SKY/WX    TMP DP  RH WIND       PRES   REMARKS
CHANUTE        CLEAR     80  60  50 SE6       30.00F
COFFEYVILLE    CLEAR     84  59  42 E7        29.98S
HUTCHINSON     CLEAR     86  59  39 SE12      29.95F
MEDICINE LODGE   N/A     87  55  33 S10       29.95S
NEWTON         CLEAR     84  57  39 SE9       30.01S
PARSONS        CLEAR     81  60  48 CALM      30.00F
WICHITA INTL   PTCLDY    84  60  44 SE13      29.96F
WICHITA JABRA  CLEAR     83  63  50 SE9       29.97S
WINFIELD       CLEAR     84  64  50 E9        29.98F
$$

KSZ007>012-019>026-033>040-048>060-102>105-100200-
NORTHEAST KANSAS

CITY           SKY/WX    TMP DP  RH WIND       PRES   REMARKS
CONCORDIA      PTCLDY    83  61  47 SE7       29.95R
EMPORIA        CLEAR     80  60  50 SE8       29.99S
LAWRENCE       PTCLDY    80  65  59 E8        30.00R
MANHATTAN      PTCLDY    84  60  44 SE6       29.96S
OLATHE IND     PTCLDY    81  62  52 E3        30.02R
OLATHE EXE     PTCLDY    77  60  55 E9        30.01S
SALINA         CLEAR     87  60  40 SE16      29.94S
TOPEKA BILLARD PTCLDY    81  64  56 E7        29.99S
TOPEKA FORBES  PTCLDY    81  64  56 E6        29.99S
$$



USA.gov is the U.S. government's official web portal to all federal, state and local government web resources and services.